Dewpoint
52 52 52 51 51 52 52 51 50 49 48 48 49 49 48 48 49 48 49 48 48 49 49 50 50 50 51 49 50 50 50 49 48 47 48 48 46 47 47 46 46 46
52 52 53 52 52 53 52 51 50 49 48 48 49 49 49 49 49 49 50 48 49 48 48 48 49 50 49 50 49 49 47 47 48 51 48 47 46 47 46 45 44 44
53 52 52 51 52 52 52 51 51 50 49 49 49 49 50 50 49 49 49 49 48 48 48 49 49 50 50 49 49 49 48 47 47 48 49 47 46 47 45 45 44 44
53 52 52 51 52 52 52 51 52 51 49 49 49 51 51 51 50 49 50 53 48 48 47 48 49 49 50 49 49 48 47 47 48 48 48 48 49 47 46 47 47 45
53 53 52 52 52 53 52 51 51 51 50 50 49 50 51 50 50 50 50 50 48 48 48 48 48 48 48 49 48 47 47 48 48 47 47 47 48 47 46 47 45 45
53 53 52 52 52 52 52 51 52 52 51 50 50 51 51 51 50 50 51 49 49 49 48 48 48 48 48 48 47 47 49 48 48 47 47 47 47 47 48 46 45 44
54 54 53 53 53 53 52 53 52 52 52 51 51 51 52 51 51 51 52 52 50 51 50 49 48 48 48 47 47 47 47 47 47 46 47 46 48 46 47 45 45 44
54 54 54 54 54 54 53 53 53 53 52 52 51 51 52 51 51 52 53 53 52 51 50 50 50 49 48 47 47 47 46 48 48 47 46 46 46 46 46 46 44 43
55 55 55 54 54 54 53 53 53 53 53 53 52 51 51 51 51 51 53 53 53 52 51 50 50 50 49 49 47 47 48 47 49 48 47 47 47 46 47 46 44 45
53 54 54 54 53 54 54 55 55 55 55 53 54 54 54 54 54 51 52 52 53 53 52 51 51 50 49 49 49 47 48 48 48 48 48 47 48 47 46 47 46 44
52 53 53 52 52 53 53 54 55 55 55 54 54 54 54 55 54 53 53 53 53 53 53 52 52 51 50 50 49 49 48 48 48 49 48 47 48 48 49 47 47 46
51 52 51 52 52 52 53 53 53 54 54 54 55 54 55 54 54 54 55 54 55 54 53 53 52 52 53 52 50 50 49 48 48 48 48 48 47 48 49 47 47 47
51 50 51 51 51 51 52 53 53 53 53 53 53 53 54 53 53 54 54 54 54 54 54 54 54 54 53 53 52 52 51 50 49 49 49 48 47 47 48 48 47 47
51 51 52 52 51 52 52 52 52 52 52 52 53 53 53 52 52 53 53 53 53 53 55 54 54 53 53 53 53 53 52 52 51 50 49 49 49 48 48 48 47 46
51 51 52 52 52 52 51 51 52 53 53 53 52 52 52 52 52 52 52 52 52 53 53 53 53 53 53 53 53 53 53 53 52 52 51 50 50 50 49 48 48 47
50 50 51 52 51 52 52 51 52 51 51 51 52 51 51 51 52 52 52 52 52 52 52 52 52 53 53 50 50 53 53 53 52 52 51 51 51 50 49 49 48 48
45 45 47 48 49 49 49 50 50 50 50 50 50 50 50 51 51 51 51 52 52 51 51 51 52 53 49 47 45 46 51 52 52 52 52 51 50 50 49 49 48 48
39 40 40 40 42 42 43 45 47 48 49 50 49 49 50 49 49 50 50 49 50 50 50 50 51 50 46 45 44 44 46 51 52 51 51 51 51 50 50 49 48 47
38 38 39 39 40 41 41 42 42 42 42 42 43 46 47 48 47 47 48 47 48 49 49 49 49 47 43 43 43 42 42 45 50 51 49 49 49 49 49 49 47 46
37 37 38 39 40 40 40 40 40 39 40 41 40 42 43 43 44 45 44 45 45 46 47 47 48 47 43 43 42 41 41 42 49 49 49 49 49 49 48 47 46 45
38 38 38 38 39 39 39 39 39 38 39 39 39 39 39 40 39 40 40 41 40 42 43 46 46 39 37 39 40 41 41 41 48 47 48 47 47 46 46 45 43 44
37 38 38 38 39 38 38 38 37 37 37 38 39 38 39 39 39 39 39 39 39 38 41 41 40 37 37 37 40 42 39 44 45 45 45 44 41 41 42 42 42 43
37 37 38 38 37 36 37 38 38 39 39 40 38 38 38 39 38 38 38 37 37 36 37 36 36 37 37 38 38 41 41 42 42 40 39 39 39 41 41 41 41 41
38 38 37 38 36 36 36 37 37 37 37 39 39 38 38 38 36 36 35 36 35 36 37 34 33 37 37 38 39 40 42 41 41 40 39 40 38 38 38 40 44 46
38 37 37 36 36 36 36 36 37 38 39 38 37 38 38 37 38 35 34 33 33 34 40 33 32 35 37 38 39 39 40 40 41 40 37 34 34 34 34 35 36 39
39 40 38 38 37 37 37 37 38 38 37 37 37 37 37 36 35 33 33 32 31 31 33 32 32 33 35 37 38 39 40 40 39 37 34 32 33 33 33 33 34 34